Location: *
(48.4333°N, 5.0333°W)
Time: 02:43:06
(UTC+00:00)

LilacSat-2 - Pass Details

Date: 25 October 2021
Orbit: 511 x 532 km, 97.5° (Epoch: 03 December)

Event Time Altitude Azimuth Distance (km) Brightness Sun altitude
Rises 05:52:37 0° 18° (NNE) 2,637 ? -11.0°
Reaches altitude 10° 05:54:47 10° 25° (NNE) 1,745 ? -10.6°
Maximum altitude 05:58:24 44° 99° (E) 723 ? -10.0°
Drops below altitude 10° 06:01:59 10° 172° (S) 1,733 ? -9.5°
Sets 06:04:08 0° 179° (S) 2,616 ? -9.1°
